TimePDT,TemperatureF,Dew PointF,Humidity,Sea Level PressureIn,VisibilityMPH,Wind Direction,Wind SpeedMPH,Gust SpeedMPH,PrecipitationIn,Events,Conditions,WindDirDegrees,DateUTC
12:34 AM,62.6,53.6,72,30.11,10.0,SW,4.6,-,N/A,,Mostly Cloudy,230,2013-05-08 07:34:00
12:51 AM,62.1,53.1,72,30.11,10.0,West,3.5,-,N/A,,Mostly Cloudy,260,2013-05-08 07:51:00
1:51 AM,61.0,53.1,75,30.10,10.0,Calm,Calm,-,N/A,,Mostly Cloudy,0,2013-05-08 08:51:00
2:51 AM,62.1,52.0,70,30.09,10.0,Calm,Calm,-,N/A,,Mostly Cloudy,0,2013-05-08 09:51:00
3:51 AM,61.0,53.1,75,30.09,10.0,SSE,5.8,-,N/A,,Mostly Cloudy,160,2013-05-08 10:51:00
4:51 AM,61.0,52.0,72,30.09,10.0,ESE,4.6,-,N/A,,Mostly Cloudy,110,2013-05-08 11:51:00
5:51 AM,60.1,52.0,75,30.09,10.0,Calm,Calm,-,N/A,,Mostly Cloudy,0,2013-05-08 12:51:00
6:51 AM,60.1,52.0,75,30.09,10.0,Calm,Calm,-,N/A,,Mostly Cloudy,0,2013-05-08 13:51:00
7:51 AM,61.0,52.0,72,30.12,9.0,SSW,3.5,-,N/A,,Overcast,200,2013-05-08 14:51:00
8:20 AM,60.8,51.8,72,30.12,7.0,South,6.9,-,N/A,,Mostly Cloudy,170,2013-05-08 15:20:00
8:35 AM,60.8,51.8,72,30.13,10.0,SSE,6.9,-,N/A,,Overcast,160,2013-05-08 15:35:00
8:51 AM,62.1,52.0,70,30.13,10.0,Variable,3.5,-,N/A,,Overcast,0,2013-05-08 15:51:00
9:51 AM,62.1,52.0,70,30.13,10.0,SW,6.9,-,N/A,,Mostly Cloudy,220,2013-05-08 16:51:00
10:51 AM,64.0,50.0,60,30.12,10.0,SW,8.1,-,N/A,,Mostly Cloudy,230,2013-05-08 17:51:00
11:51 AM,66.0,48.9,54,30.12,10.0,WSW,5.8,-,N/A,,Mostly Cloudy,250,2013-05-08 18:51:00
12:51 PM,66.9,50.0,54,30.11,10.0,West,10.4,-,N/A,,Mostly Cloudy,270,2013-05-08 19:51:00
1:51 PM,68.0,48.9,50,30.11,10.0,West,11.5,-,N/A,,Mostly Cloudy,280,2013-05-08 20:51:00
2:51 PM,68.0,52.0,56,30.10,10.0,WNW,11.5,-,N/A,,Mostly Cloudy,290,2013-05-08 21:51:00
3:51 PM,68.0,51.1,55,30.09,10.0,NW,13.8,19.6,N/A,,Mostly Cloudy,310,2013-05-08 22:51:00
4:51 PM,66.9,51.1,57,30.09,10.0,WNW,13.8,-,N/A,,Mostly Cloudy,290,2013-05-08 23:51:00
5:51 PM,64.9,53.1,65,30.09,10.0,WNW,12.7,-,N/A,,Mostly Cloudy,290,2013-05-09 00:51:00
6:00 PM,-9999,-9999,N/A,-9999,-9999.0,North,-9999.0,-,N/A,,Sand,0,2013-05-09 01:00:00
6:51 PM,64.9,53.1,65,30.09,10.0,WNW,10.4,-,N/A,,Mostly Cloudy,290,2013-05-09 01:51:00
7:51 PM,64.0,51.1,63,30.10,10.0,NW,8.1,-,N/A,,Mostly Cloudy,320,2013-05-09 02:51:00
8:51 PM,64.0,53.1,67,30.11,10.0,NW,5.8,-,N/A,,Mostly Cloudy,310,2013-05-09 03:51:00
9:51 PM,63.0,54.0,72,30.12,10.0,WNW,6.9,-,N/A,,Mostly Cloudy,290,2013-05-09 04:51:00
10:51 PM,63.0,54.0,72,30.12,10.0,NNE,5.8,-,N/A,,Mostly Cloudy,20,2013-05-09 05:51:00
11:51 PM,63.0,53.1,70,30.12,10.0,Calm,Calm,-,N/A,,Scattered Clouds,0,2013-05-09 06:51:00